Regional Weather Roundup
Issued by NWS

Home | Current Version | Previous Version | Text Only | Print | Product List | Glossary On
Versions: 1 2 3 4 5 6 7 8 9 10 11 12 13 14 15 16 17 18 19 20 21 22 23 24 25 26 27 28 29 30 31 32 33 34 35 36 37 38 39 40 41 42 43 44 45 46 47 48 49 50
000
ASUS46 KSTO 292215
RWRCA

NORTHERN AND CENTRAL CA REGIONAL WEATHER ROUNDUP
NATIONAL WEATHER SERVICE SACRAMENTO CA
300 PM PDT THU SEP 29 2016

NOTE: FAIR INDICATES FEW OR NO CLOUDS BELOW 12,000 FEET WITH NO
SIGNIFICANT WEATHER AND/OR OBSTRUCTIONS TO VISIBILITY.

CAZ001-003-292300-
NORTHWEST AREA

CITY           SKY/WX    TMP DP  RH WIND       PRES   REMARKS
CRESCENT CITY  CLOUDY    54  51  90 SW6       30.11S
UKIAH          SUNNY     85  19   9 SW10      30.00F
$$

CAZ006-505>513-292300-
BAY AREA

CITY           SKY/WX    TMP DP  RH WIND       PRES   REMARKS
SANTA ROSA     SUNNY     72  51  47 S8        30.03F
SAN RAFAEL     N/A       66  MM  MM MISG
NAPA           SUNNY     71  54  54 S14       30.04F
CONCORD        SUNNY     80  42  25 W13       30.01F
OAKLAND CITY   N/A       64  MM  MM MISG
OAKLAND        MOSUNNY   64  52  64 W16       30.07F
SAN FRAN CITY  N/A       56  MM  81 MISG
SAN FRAN ARPT  MOSUNNY   61  50  67 W28G36    30.08R
LIVERMORE      SUNNY     82  39  21 W12       30.02F
HAYWARD        SUNNY     66  49  54 NW15      30.07F
REDWOOD CITY   N/A       67  MM  60 MISG
MOFFETT ARPT   SUNNY     66  54  65 N13       30.07F
SAN JOSE ARPT  MOSUNNY   71  55  56 NW10      30.05F
$$
CAZ034-037-514>518-292300-
CENTRAL COAST

CITY           SKY/WX    TMP DP  RH WIND       PRES   REMARKS
WATSONVILLE    SUNNY     67  55  65 S7        30.06F
SALINAS        SUNNY     65  52  62 W14       30.05F
MONTEREY       MOSUNNY   59  52  77 NW9       30.07F
SAN LUIS OBISP SUNNY     80  55  42 NW12      30.02S
SANTA MARIA    SUNNY     70  57  63 NW13      30.04F
$$
CAZ015-016-292300-
NORTHERN SACRAMENTO VALLEY

CITY           SKY/WX    TMP DP  RH WIND       PRES   REMARKS
REDDING        SUNNY     85  44  23 S12       29.95F
RED BLUFF      SUNNY     84  53  34 S12       29.96F
OROVILLE       SUNNY     87  48  25 S13       29.98F
$$
CAZ016>018-292300-
SOUTHERN SACRAMENTO VALLEY

CITY           SKY/WX    TMP DP  RH WIND       PRES   REMARKS
AUBURN         SUNNY     84  37  18 SW9       30.06S
BEALE AFB      SUNNY     86  49  27 S9        29.96F
LINCOLN        FAIR      86  41  20 S8        29.97F
MARYSVILLE     SUNNY     86  52  30 S10       29.97F
SAC INTL ARPT  SUNNY     82  49  31 S14       29.97F
MATHER AIRPORT SUNNY     84  45  24 SW8       29.99F
DOWNTOWN SAC   N/A       87  MM  MM MISG
SAC EXEC ARPT  SUNNY     83  44  25 S8        29.98F
VACAVILLE      SUNNY     88  41  19 S10       29.98F
TRAVIS AFB     SUNNY     78  49  35 SW20      29.97F
$$
CAZ019>021-292300-
SAN JOAQUIN VALLEY

CITY           SKY/WX    TMP DP  RH WIND       PRES   REMARKS
STOCKTON       SUNNY     88  43  20 W8        29.99F
MODESTO        SUNNY     89  47  23 NW8       29.97F
MERCED         SUNNY     90  43  19 MISG      29.97F
LEMOORE        MOSUNNY   96  40  14 VRB3      29.96F HX  92
FRESNO         MOSUNNY   93  33  12 W6        29.98F
HANFORD        SUNNY     95  40  14 SE3       29.97F HX  91
PORTERVILLE    SUNNY     95  50  21 VRB7      29.98F HX  92
BAKERSFIELD    SUNNY     96  44  16 NW10      29.96F HX  92
$$
CAZ011-012-071-292300-
NORTHERN MOUNTAINS

CITY           SKY/WX    TMP DP  RH WIND       PRES   REMARKS
YREKA          SUNNY     84  39  20 S21       29.96F
MOUNT SHASTA   SUNNY     79  44  28 CALM      30.06F
$$
CAZ011-012-071-292300-
SIERRA NEVADA MTNS

CITY           SKY/WX    TMP DP  RH WIND       PRES   REMARKS
BLUE CANYON    SUNNY     72  33  24 S17G26    30.25F
TRUCKEE        SUNNY     73  34  23 S15G23    30.25S
TAHOE VLY ARPT SUNNY     71  33  24 SW10G18   30.25F
MAMMOTH LAKES  CLOUDY    69  33  26 CALM      30.31R
$$



USA.gov is the U.S. government's official web portal to all federal, state and local government web resources and services.